Location: Bo?a Wola
(50.4192°N, 19.7966°E)
Time: 03:57:06
(UTC+00:00)

CZ-4C R/B - Visible Passes

Search period start: 13 September 2024 00:00
Search period end: 23 September 2024 00:00
Orbit: 522 x 1469 km, 63.4° (Epoch: 12 September)

Date Brightness Start Highest point End Pass type
(mag) Time Alt. Az. Time Alt. Az. Time Alt. Az.
13 Sep 2.1 01:18:50 59° NW 01:19:07 60° NW 01:25:04 10° NE visible
13 Sep 3.8 03:04:14 10° WNW 03:08:46 27° NNW 03:14:19 10° NE visible
14 Sep 3.3 00:04:36 35° ENE 00:04:36 35° ENE 00:08:10 10° NE visible
14 Sep 3.0 01:49:39 30° WNW 01:51:19 38° NNW 01:57:06 10° NE visible
14 Sep 4.1 03:36:45 10° NW 03:41:25 25° N 03:47:03 10° NE visible
14 Sep 4.7 22:50:20 11° ENE 22:50:20 11° ENE 22:50:40 10° ENE visible
15 Sep 2.6 00:35:24 55° NNE 00:35:24 55° NNE 00:40:14 10° NE visible
15 Sep 3.7 02:20:27 16° WNW 02:23:46 29° NNW 02:29:20 10° NE visible
15 Sep 4.1 23:21:08 21° ENE 23:21:08 21° ENE 23:23:16 10° NE visible
16 Sep 2.8 01:06:11 43° NW 01:06:23 43° NNW 01:12:14 10° NE visible
16 Sep 4.1 02:51:46 10° WNW 02:56:22 25° N 03:01:56 10° NE visible
16 Sep 3.5 23:51:53 35° NE 23:51:53 35° NE 23:55:24 10° NE visible
17 Sep 3.4 01:36:57 25° NW 01:38:45 31° NNW 01:44:23 10° NE visible
17 Sep 4.2 03:24:08 10° NW 03:29:01 26° N 03:34:55 10° ENE visible
17 Sep 4.6 22:37:35 13° ENE 22:37:35 13° ENE 22:38:19 10° NE visible
18 Sep 3.1 00:22:39 43° N 00:22:39 43° N 00:27:23 10° NE visible
18 Sep 4.0 02:07:42 14° WNW 02:11:18 26° N 02:16:50 10° NE visible
18 Sep 4.1 23:08:19 22° NE 23:08:19 22° NE 23:10:31 10° NE visible
19 Sep 3.3 00:53:22 33° NNW 00:53:45 34° NNW 00:59:27 10° NE visible
19 Sep 4.2 02:39:11 10° NW 02:43:57 25° N 02:49:42 10° ENE visible
19 Sep 3.7 23:39:03 32° NNE 23:39:03 32° NNE 23:42:31 10° NE visible
20 Sep 3.8 01:24:06 21° NW 01:26:14 27° NNW 01:31:46 10° NE visible
20 Sep 4.3 03:11:21 10° NW 03:16:35 28° NNE 03:22:53 10° ENE visible
20 Sep 4.6 22:24:42 14° NE 22:24:42 14° NE 22:25:37 10° NE visible
21 Sep 3.5 00:09:45 35° N 00:09:45 35° N 00:14:32 10° NE visible
21 Sep 4.2 01:54:49 13° NW 01:58:51 25° N 02:04:29 10° NE visible
21 Sep 4.1 03:43:16 10° NW 03:49:04 35° NNE 03:56:12 10° E visible
21 Sep 4.2 22:55:25 22° NE 22:55:25 22° NE 22:57:38 10° NE visible
22 Sep 3.7 00:40:28 28° NNW 00:41:10 29° NNW 00:46:44 10° NE visible
22 Sep 4.3 02:26:26 10° NW 02:31:29 27° N 02:37:34 10° ENE visible
22 Sep 3.9 23:26:07 29° NNE 23:26:07 29° NNE 23:29:37 10° NE visible
